Location: Newark
(48.3453°N, 0.5589°E)
Time: 23:11:03
(UTC+00:00)

Tiros 1 - Visible Passes

Search period start: 05 December 2019 00:00
Search period end: 15 December 2019 00:00
Orbit: 630 x 664 km, 48.4° (Epoch: 04 December)

Date Brightness Start Highest point End Pass type
(mag) Time Alt. Az. Time Alt. Az. Time Alt. Az.
07 Dec 10.2 06:09:33 10° SSE 06:11:42 13° SE 06:13:51 10° ESE visible
08 Dec 9.5 06:33:29 10° SSW 06:37:17 25° SE 06:41:06 10° E visible
09 Dec 10.1 05:19:54 10° SSE 05:21:44 12° SE 05:23:33 10° ESE visible
09 Dec 8.5 06:58:37 10° SW 07:03:03 43° SSE 07:07:28 10° E visible
10 Dec 9.4 05:43:33 10° SSW 05:47:18 24° SE 05:51:01 10° E visible
11 Dec 10.0 04:30:20 10° SSE 04:31:45 11° SE 04:33:09 10° ESE visible
11 Dec 8.4 06:08:38 10° SW 06:13:02 40° SSE 06:17:26 10° E visible
12 Dec 9.3 04:54:38 14° S 04:57:18 22° SE 05:00:56 10° E visible
12 Dec 7.6 06:34:18 10° WSW 06:38:57 63° SSE 06:43:35 10° E visible
13 Dec 8.3 05:20:23 21° SSW 05:23:01 38° SSE 05:27:23 10° E visible
13 Dec 7.2 07:00:16 10° WSW 07:04:59 84° S 07:09:40 10° E visible
14 Dec 9.4 04:08:13 20° SE 04:08:13 20° SE 04:10:49 10° E visible
14 Dec 7.5 05:45:55 21° SW 05:48:55 61° SSE 05:53:33 10° E visible
